Regional Weather Roundup
Issued by NWS

Home | Current Version | Previous Version | Text Only | Print | Product List | Glossary On
Versions: 1 2 3 4 5 6 7 8 9 10 11 12 13 14 15 16 17 18 19 20 21 22 23 24 25 26 27 28 29 30 31 32 33 34 35 36 37 38 39 40 41 42 43 44 45 46 47 48 49 50
000
ASUS45 KCYS 110710
RWRWY

WYOMING REGIONAL WEATHER ROUNDUP
NATIONAL WEATHER SERVICE CHEYENNE WY
100 AM MDT FRI JUL 11 2014

NOTE:  "FAIR" INDICATES FEW OR NO CLOUDS BELOW 12,000 FEET
WITH NO SIGNIFICANT WEATHER AND/OR OBSTRUCTIONS TO VISIBILITY.

WYZ001-110800-
YELLOWSTONE NATIONAL PARK

CITY           SKY/WX    TMP DP  RH WIND       PRES   REMARKS
LK YELLOWSTONE   N/A     47  44  90 CALM      30.28R
W YELLOWSTONE  NOT AVBL

$$
WYZ002>013-054>058-071-098>099-110800-
NORTHERN WYOMING

CITY           SKY/WX    TMP DP  RH WIND       PRES   REMARKS
JACKSON        CLEAR     54  48  82 N7        30.16S
CODY           MOCLDY    66  54  63 SW14      30.05S
GREYBULL       MOCLDY    67  55  65 CALM      29.96F
WORLAND        PTCLDY    66  55  67 NE3       29.98R
SHERIDAN       PTCLDY    61  52  72 SW5       29.95F
BUFFALO        PTCLDY    67  52  58 W8        30.04F
GILLETTE       PTCLDY    69  56  62 S12       29.98F
HULETT         FAIR      70  59  68 MISG      30.00
NEWCASTLE      FAIR      63  59  88 CALM      30.02

$$
WYZ014>020-022>026-101>103-110800-
CENTRAL WYOMING

CITY           SKY/WX    TMP DP  RH WIND       PRES   REMARKS
BIG PINEY      MOCLDY    61  54  77 S10       30.23R
PINEDALE       MOSUNNY   57  52  82 SE3       30.25R
DUBOIS         FAIR      57  45  62 NW10      30.20F
LANDER         PTCLDY    69  54  58 NW3       30.05S
RIVERTON       PTCLDY    68  53  58 W3        30.06F
CASPER         MOCLDY    66  53  63 SW8       30.07S
DOUGLAS        MOCLDY    64  61  90 E6        30.05F

$$
WYZ021-027>030-104>119-110800-
SOUTHERN WYOMING

CITY           SKY/WX    TMP DP  RH WIND       PRES   REMARKS
EVANSTON       CLOUDY    56  54  93 SW12      30.27R
KEMMERER       CLOUDY    59  50  72 SW5       30.27R
FORT BRIDGER   CLOUDY    60  54  78 W8        30.26S
ROCK SPRINGS   LGT RAIN  62  54  74 W7        30.19F
DIXON          PTSUNNY   63  54  74 E3        30.24R
RAWLINS        MOCLDY    61  55  81 SW7       30.21S
SARATOGA       FAIR      57  54  88 SE7       30.22F
LARAMIE        PTCLDY    56  54  93 W7        30.24R
CHEYENNE       CLOUDY    62  56  80 E6        30.15R
TORRINGTON     CLOUDY    67  64  90 SW3       30.02F

$$


USA.gov is the U.S. government's official web portal to all federal, state and local government web resources and services.